• Em Portugal
  • Lista de países
  • Para 7 dias
  • Temperatura da água
  • Mapas de satélite
  • Mapa do tempo
  • Widgets de tempo
  • user-avatar
    Iniciar Sessão

    Previsão horária em Natal

    Hoje, 21 Setembro, Quinta-feira

    Tempo Temperatura Precipitação Vento Pressão Humidade
    00:00 +23°C° 0 mm 6 m/s 762 mmHg 85%
    01:00 +23°C° 0 mm 6 m/s 762 mmHg 87%
    02:00 +22°C° 0 mm 6 m/s 761 mmHg 89%
    03:00 +22°C° 0 mm 5 m/s 761 mmHg 91%
    04:00 +22°C° 0 mm 5 m/s 760 mmHg 93%
    05:00 +22°C° 0 mm 6 m/s 761 mmHg 92%
    06:00 +23°C° 0 mm 6 m/s 761 mmHg 90%
    07:00 +23°C° 0 mm 6 m/s 761 mmHg 89%
    08:00 +26°C° 0,1 mm 7 m/s 761 mmHg 78%
    09:00 +29°C° 0,1 mm 7 m/s 762 mmHg 68%
    10:00 +32°C° 0,1 mm 8 m/s 762 mmHg 57%
    11:00 +33°C° 0,1 mm 8 m/s 762 mmHg 54%
    12:00 +34°C° 0,1 mm 8 m/s 761 mmHg 52%
    13:00 +35°C° 0,1 mm 9 m/s 761 mmHg 50%
    14:00 +34°C° 0 mm 8 m/s 761 mmHg 52%
    15:00 +33°C° 0 mm 8 m/s 760 mmHg 53%
    16:00 +33°C° 0 mm 8 m/s 760 mmHg 55%
    17:00 +31°C° 0 mm 8 m/s 760 mmHg 61%
    18:00 +29°C° 0 mm 7 m/s 760 mmHg 67%
    19:00 +27°C° 0 mm 7 m/s 761 mmHg 72%
    20:00 +27°C° 0 mm 7 m/s 761 mmHg 75%
    21:00 +26°C° 0 mm 6 m/s 762 mmHg 77%
    22:00 +26°C° 0 mm 6 m/s 762 mmHg 80%
    23:00 +24°C° 0,1 mm 6 m/s 762 mmHg 82%

    Amanhã, 22 Setembro, Sexta-feira

    Tempo Temperatura Precipitação Vento Pressão Humidade
    00:00 +24°C° 0,1 mm 6 m/s 762 mmHg 84%
    01:00 +24°C° 0,1 mm 6 m/s 761 mmHg 86%
    02:00 +23°C° 0,1 mm 6 m/s 761 mmHg 87%
    03:00 +23°C° 0,1 mm 5 m/s 760 mmHg 89%
    04:00 +23°C° 0,1 mm 5 m/s 760 mmHg 90%
    05:00 +23°C° 0,2 mm 5 m/s 760 mmHg 89%
    06:00 +23°C° 0,2 mm 5 m/s 761 mmHg 89%
    07:00 +23°C° 0,2 mm 5 m/s 761 mmHg 88%
    08:00 +27°C° 0,3 mm 6 m/s 761 mmHg 79%
    09:00 +29°C° 0,3 mm 6 m/s 762 mmHg 69%
    10:00 +32°C° 0,3 mm 7 m/s 762 mmHg 60%
    11:00 +32°C° 0,5 mm 7 m/s 762 mmHg 60%
    12:00 +32°C° 0,5 mm 7 m/s 761 mmHg 60%
    13:00 +32°C° 0,5 mm 7 m/s 761 mmHg 60%
    14:00 +32°C° 0,5 mm 7 m/s 760 mmHg 61%
    15:00 +30°C° 0,5 mm 7 m/s 760 mmHg 61%
    16:00 +30°C° 0,5 mm 7 m/s 759 mmHg 62%
    17:00 +29°C° 0,4 mm 6 m/s 760 mmHg 68%
    18:00 +28°C° 0,4 mm 6 m/s 760 mmHg 74%
    19:00 +26°C° 0,4 mm 6 m/s 760 mmHg 80%
    20:00 +26°C° 0,2 mm 6 m/s 761 mmHg 82%
    21:00 +24°C° 0,2 mm 6 m/s 761 mmHg 85%
    22:00 +25°C° 0,2 mm 5 m/s 762 mmHg 88%
    23:00 +25°C° 0,2 mm 5 m/s 762 mmHg 89%

    Depois de amanhã, 23 Setembro, Sábado

    Tempo Temperatura Precipitação Vento Pressão Humidade
    00:00 +23°C° 0,2 mm 5 m/s 761 mmHg 90%
    01:00 +23°C° 0,2 mm 5 m/s 761 mmHg 92%
    02:00 +23°C° 0,2 mm 5 m/s 760 mmHg 93%
    03:00 +22°C° 0,2 mm 5 m/s 760 mmHg 93%
    04:00 +22°C° 0,2 mm 4 m/s 760 mmHg 94%
    05:00 +23°C° 0,2 mm 5 m/s 760 mmHg 93%
    06:00 +23°C° 0,2 mm 5 m/s 760 mmHg 91%
    07:00 +23°C° 0,2 mm 5 m/s 761 mmHg 90%
    08:00 +26°C° 0,4 mm 5 m/s 761 mmHg 80%
    09:00 +28°C° 0,4 mm 6 m/s 762 mmHg 70%
    10:00 +32°C° 0,4 mm 6 m/s 762 mmHg 60%
    11:00 +32°C° 0,5 mm 6 m/s 761 mmHg 59%
    12:00 +32°C° 0,5 mm 6 m/s 761 mmHg 57%
    13:00 +33°C° 0,5 mm 6 m/s 760 mmHg 55%
    14:00 +32°C° 0,1 mm 6 m/s 760 mmHg 57%
    15:00 +32°C° 0,1 mm 6 m/s 759 mmHg 59%
    16:00 +30°C° 0,1 mm 6 m/s 759 mmHg 60%
    17:00 +29°C° 0 mm 6 m/s 759 mmHg 67%
    18:00 +28°C° 0 mm 6 m/s 760 mmHg 73%
    19:00 +26°C° 0 mm 5 m/s 760 mmHg 79%
    20:00 +26°C° 0,1 mm 5 m/s 760 mmHg 82%
    21:00 +25°C° 0,1 mm 5 m/s 761 mmHg 85%
    22:00 +25°C° 0,1 mm 5 m/s 761 mmHg 89%
    23:00 +25°C° 0,2 mm 5 m/s 761 mmHg 90%

    24 Setembro, Domingo

    Tempo Temperatura Precipitação Vento Pressão Humidade
    00:00 +23°C° 0,2 mm 5 m/s 760 mmHg 91%
    01:00 +23°C° 0,2 mm 6 m/s 760 mmHg 93%
    02:00 +23°C° 0,2 mm 6 m/s 760 mmHg 93%
    03:00 +23°C° 0,2 mm 6 m/s 759 mmHg 93%
    04:00 +23°C° 0,2 mm 6 m/s 759 mmHg 94%
    05:00 +23°C° 0,3 mm 6 m/s 760 mmHg 92%
    06:00 +23°C° 0,3 mm 6 m/s 760 mmHg 90%
    07:00 +24°C° 0,3 mm 7 m/s 760 mmHg 88%
    08:00 +27°C° 0,2 mm 7 m/s 761 mmHg 78%
    09:00 +29°C° 0,2 mm 8 m/s 761 mmHg 69%
    10:00 +32°C° 0,2 mm 8 m/s 761 mmHg 59%
    11:00 +32°C° 0,1 mm 8 m/s 761 mmHg 56%
    12:00 +33°C° 0,1 mm 8 m/s 760 mmHg 53%
    13:00 +34°C° 0,1 mm 8 m/s 760 mmHg 50%
    14:00 +33°C° 0 mm 8 m/s 759 mmHg 52%
    15:00 +33°C° 0 mm 8 m/s 759 mmHg 53%
    16:00 +32°C° 0 mm 8 m/s 759 mmHg 55%
    17:00 +31°C° 0 mm 8 m/s 759 mmHg 61%
    18:00 +28°C° 0 mm 7 m/s 759 mmHg 68%
    19:00 +27°C° 0 mm 7 m/s 760 mmHg 74%
    20:00 +26°C° 0 mm 7 m/s 760 mmHg 77%
    21:00 +26°C° 0 mm 6 m/s 760 mmHg 79%
    22:00 +24°C° 0 mm 6 m/s 761 mmHg 81%
    23:00 +24°C° 0 mm 6 m/s 760 mmHg 82%

    25 Setembro, Segunda-feira

    Tempo Temperatura Precipitação Vento Pressão Humidade
    00:00 +24°C° 0 mm 6 m/s 760 mmHg 83%
    01:00 +23°C° 0 mm 6 m/s 760 mmHg 84%
    02:00 +23°C° 0 mm 6 m/s 760 mmHg 86%
    03:00 +23°C° 0 mm 6 m/s 760 mmHg 87%
    04:00 +23°C° 0 mm 5 m/s 760 mmHg 89%
    05:00 +23°C° 0,1 mm 6 m/s 760 mmHg 88%
    06:00 +23°C° 0,1 mm 6 m/s 760 mmHg 88%
    07:00 +24°C° 0,1 mm 6 m/s 761 mmHg 87%
    08:00 +26°C° 0,1 mm 6 m/s 761 mmHg 81%
    09:00 +28°C° 0,1 mm 7 m/s 761 mmHg 74%
    10:00 +29°C° 0,1 mm 7 m/s 762 mmHg 67%
    11:00 +30°C° 0,1 mm 7 m/s 761 mmHg 63%
    12:00 +32°C° 0,1 mm 8 m/s 761 mmHg 59%
    13:00 +33°C° 0,1 mm 8 m/s 760 mmHg 54%
    14:00 +33°C° 0 mm 8 m/s 760 mmHg 55%
    15:00 +33°C° 0 mm 8 m/s 759 mmHg 55%
    16:00 +32°C° 0 mm 8 m/s 759 mmHg 56%
    17:00 +30°C° 0 mm 7 m/s 759 mmHg 63%
    18:00 +28°C° 0 mm 7 m/s 760 mmHg 70%
    19:00 +27°C° 0 mm 7 m/s 760 mmHg 77%
    20:00 +26°C° 0,1 mm 7 m/s 760 mmHg 80%
    21:00 +26°C° 0,1 mm 7 m/s 761 mmHg 83%
    22:00 +26°C° 0,1 mm 7 m/s 761 mmHg 86%
    23:00 +24°C° 0,2 mm 7 m/s 761 mmHg 87%

    26 Setembro, Terça-feira

    Tempo Temperatura Precipitação Vento Pressão Humidade
    00:00 +24°C° 0,2 mm 6 m/s 760 mmHg 89%
    01:00 +24°C° 0,2 mm 6 m/s 760 mmHg 91%
    02:00 +24°C° 0,3 mm 6 m/s 760 mmHg 92%
    03:00 +24°C° 0,3 mm 6 m/s 760 mmHg 92%
    04:00 +24°C° 0,3 mm 6 m/s 760 mmHg 93%
    05:00 +24°C° 0,2 mm 7 m/s 760 mmHg 91%
    06:00 +24°C° 0,2 mm 7 m/s 760 mmHg 90%
    07:00 +24°C° 0,2 mm 7 m/s 760 mmHg 89%
    08:00 +27°C° 0,1 mm 7 m/s 761 mmHg 79%
    09:00 +29°C° 0,1 mm 8 m/s 761 mmHg 69%
    10:00 +32°C° 0,1 mm 8 m/s 761 mmHg 59%
    11:00 +33°C° 0 mm 8 m/s 761 mmHg 55%
    12:00 +34°C° 0 mm 8 m/s 760 mmHg 50%
    13:00 +35°C° 0 mm 9 m/s 759 mmHg 46%
    14:00 +34°C° 0,1 mm 9 m/s 759 mmHg 49%
    15:00 +34°C° 0,1 mm 9 m/s 759 mmHg 52%
    16:00 +33°C° 0,1 mm 9 m/s 758 mmHg 55%
    17:00 +31°C° 0,1 mm 8 m/s 759 mmHg 63%
    18:00 +29°C° 0,1 mm 8 m/s 759 mmHg 71%
    19:00 +27°C° 0,1 mm 7 m/s 759 mmHg 79%
    20:00 +26°C° 0,1 mm 7 m/s 759 mmHg 82%
    21:00 +26°C° 0,1 mm 7 m/s 760 mmHg 84%
    22:00 +26°C° 0,1 mm 7 m/s 760 mmHg 87%
    23:00 +24°C° 0,1 mm 7 m/s 760 mmHg 88%
    Mostrar mais